Regional Weather Roundup
Issued by NWS

Home | Current Version | Previous Version | Graphics & Text | Print | Product List | Glossary On
Versions: 1 2 3 4 5 6 7 8 9 10 11 12 13 14 15 16 17 18 19 20 21 22 23 24 25 26 27 28 29 30 31 32 33 34 35 36 37 38 39 40 41 42 43 44 45 46 47 48 49 50
000
ASUS43 KMPX 181001
RWRMN
WEATHER ROUNDUP FOR MINNESOTA
NATIONAL WEATHER SERVICE TWIN CITIES/CHANHASSEN MN
500 AM CDT FRI APR 18 2014


NOTE: "FAIR" INDICATES FEW OR NO CLOUDS BELOW 12,000 FEET WITH NO
SIGNIFICANT WEATHER AND/OR OBSTRUCTIONS TO VISIBILITY. N/A MEANS
CURRENT SKY AND/OR WEATHER CONDITIONS ARE NOT AVAILABLE.

MNZ060>063-068>070-181100-
   Twin Cities Metro

CITY           SKY/WX    TMP DP  RH WIND       PRES   REMARKS
TWIN CITIES    PTCLDY    28  25  88 CALM      30.33S FOG
ST PAUL        CLEAR     26  25  96 CALM      30.35R
CRYSTAL        PTCLDY    22  18  85 CALM      30.31S
BLAINE         PTCLDY    23  23 100 CALM      30.32S FOG
EDEN PRAIRIE   PTCLDY    26  25  96 CALM      30.30F FOG
LAKEVILLE      PTCLDY    23  23 100 CALM      30.32S FOG
SOUTH ST PAUL  PTCLDY    29  27  90 CALM      30.33S FOG
LAKE ELMO      FAIR      27  25  93 CALM      30.34S FOG
$$
MNZ001>005-007-008-013>017-022>024-027-028-181100-
   Northwest Minnesota

CITY           SKY/WX    TMP DP  RH WIND       PRES   REMARKS
BEMIDJI        PTCLDY    20  16  85 E5        30.29S WCI  13
HALLOCK        CLOUDY    27  19  74 E7        30.30S WCI  19
ROSEAU         CLEAR     25  14  63 CALM      30.32R
WARROAD        CLEAR     19  10  68 E3        30.33R
THIEF RVR FALL CLEAR     28  10  47 E8        30.30S WCI  20
CROOKSTON      PTCLDY    30  18  59 SE8       30.30S WCI  23
FOSSTON        CLEAR     23  12  63 CALM      30.29R
DETROIT LAKES  MOCLDY    30  18  59 CALM      30.28R
MOORHEAD       CLOUDY    34  28  80 S6        30.30R WCI  29
PARK RAPIDS    PTCLDY    28  19  69 CALM      30.27S
$$
MNZ006-009>011-018-025>026-181100-
   North Central Minnesota

CITY           SKY/WX    TMP DP  RH WIND       PRES   REMARKS
BAUDETTE       CLEAR     20  16  84 CALM      30.32R
FLAG ISLAND    CLEAR     18  14  86 CALM      30.32R
INTL FALLS     CLEAR     18  14  84 CALM      30.32R
WASKISH        CLEAR     18  16  93 CALM      30.28F
BIG FORK       CLEAR     18  14  86 CALM      30.32S
LONGVILLE      MOCLDY    27  23  86 CALM      30.30S
GRAND RAPIDS   MOCLDY    25  19  80 CALM      30.31R
CRANE LAKE     CLEAR      7   3  85 CALM      30.36R
ORR            CLEAR     12  10  92 CALM      30.30R
COOK           CLEAR     12  12 100 CALM      30.33R
$$
MNZ012-019>021-037-181100-
   Northeast Minnesota

CITY           SKY/WX    TMP DP  RH WIND       PRES   REMARKS
DULUTH         MOCLDY    22  17  81 CALM      30.31R
ELY            CLEAR     12  10  92 CALM      30.31S
HIBBING        PTCLDY    17  14  88 NW3       30.32R
EVELETH        PTCLDY    18  16  93 CALM      30.33R
DULUTH HARBOR  CLOUDY    25  21  86 CALM      30.36R
TWO HARBORS    MOCLDY    27  18  69 CALM      30.31S
SILVER BAY     PTCLDY    19  19 100 CALM      30.31R
GRAND MARAIS     N/A     30  26  85 CALM      30.33R
G MARAIS ARPRT CLOUDY    25  19  80 CALM      30.27S
$$
MNZ029>031-032-039>041-046>048-054>057-064-181100-
   West Central Minnesota

CITY           SKY/WX    TMP DP  RH WIND       PRES   REMARKS
FERGUS FALLS   CLOUDY    34  21  60 SE3       30.27S
WHEATON        MOCLDY    32  28  86 E7        30.29F WCI  26
MORRIS         CLOUDY    30  27  86 E5        30.27S WCI  25
ALEXANDRIA     CLOUDY    31  24  75 CALM      30.29S
ELBOW LAKE     CLOUDY    32  25  75 SE6       30.28S WCI  26
WADENA         CLOUDY    27  21  80 CALM      30.27S
GLENWOOD       CLOUDY    28  25  86 CALM      30.29F
APPLETON       CLOUDY    30  27  86 E6        30.27F WCI  24
BENSON         CLOUDY    28  25  86 E5        30.29S WCI  23
ORTONVILLE     CLOUDY    30  23  74 SE7       30.26F WCI  23
MADISON        MOCLDY    36  30  80 SE6       30.27S
WILLMAR        FAIR      28  25  86 E3        30.31S
$$
MNZ033>034-036-042>043-049>051-058-059-181100-
   Central Minnesota

CITY           SKY/WX    TMP DP  RH WIND       PRES   REMARKS
ST CLOUD       MOCLDY    22  19  89 CALM      30.31S
SAUK CENTRE    CLOUDY    24  22  91 CALM      30.31R
PAYNESVILLE    CLOUDY    24  22  93 CALM      30.31S
AITKIN         CLOUDY    30  21  69 NE3       30.29S
PINE RIVER     CLOUDY    28  21  74 E3        30.31F
BRAINERD       CLOUDY    34  22  61 CALM      30.29S
STAPLES        CLOUDY    25  19  80 CALM      30.28S
LONG PRAIRIE   CLOUDY    27  21  80 CALM      30.29S
LITTLE FALLS   PTCLDY    28  19  69 CALM      30.30S
LITCHFIELD       N/A     25  25 100 CALM      30.31S FOG
BUFFALO        PTCLDY    23  21  93 CALM      30.33S
MAPLE LAKE     PTCLDY    22  21  98 CALM      30.33R FOG
$$
MNZ037-044-045-052-053-181100-
   East Central Minnesota

CITY           SKY/WX    TMP DP  RH WIND       PRES   REMARKS
PRINCETON      MOCLDY    21  19  93 CALM      30.32S
MORA           MOCLDY    18  16  93 CALM      30.34S
CAMBRIDGE      PTCLDY    21  16  79 CALM      30.31S
RUSH CITY      MOCLDY    19  18  94 CALM      30.33S
MOOSE LAKE     CLOUDY    23  21  93 CALM      30.31S
HINCKLEY       PTSUNNY   21  21 100 CALM      30.32S
CLOQUET        MOCLDY    19  18  93 CALM      30.32R
MCGREGOR       CLOUDY    28  23  80 CALM      30.31S
$$
MNZ071>073-080-081-089-090-097-098-181100-
   Southwest Minnesota

CITY           SKY/WX    TMP DP  RH WIND       PRES   REMARKS
MONTEVIDEO     CLOUDY    30  27  86 S3        30.29S
GRANITE FALLS  CLOUDY    29  24  82 SE5       30.31R WCI  24
CANBY          CLOUDY    31  27  86 SE7       30.27F WCI  24
MARSHALL       CLOUDY    34  25  69 S9        30.27S WCI  26
REDWOOD FALLS  CLOUDY    30  27  88 E3        30.29F
OLIVIA         CLOUDY    27  23  86 E3        30.29F
PIPESTONE      CLOUDY    32  28  86 SE9       30.23S WCI  24
WINDOM         MOCLDY    30  28  93 E3        30.28F
WORTHINGTON    CLOUDY    30  25  80 E5        30.28S WCI  25
JACKSON        CLOUDY    32  30  93 E5        30.28S FOG     WCI  27
TRACY          CLOUDY    32  29  88 CALM      30.28S
SLAYTON        CLOUDY    31  29  92 SE7       30.27S WCI  24
$$
MNZ065>067-074>077-082>085-091>093-181100-
   South Central Minnesota

CITY           SKY/WX    TMP DP  RH WIND       PRES   REMARKS
MANKATO        CLOUDY    32  27  80 E6        30.32R WCI  26
NEW ULM        CLOUDY    30  28  93 E3        30.31R
ST JAMES       CLOUDY    34  30  86 CALM      30.32R
FAIRMONT       CLOUDY    30  28  93 CALM      30.32S
GLENCOE        CLOUDY    28  25  88 CALM      30.31S FOG
FARIBAULT      CLOUDY    32  27  80 CALM      30.31F HAZE
OWATONNA       CLOUDY    28  27  93 SE3       30.31F FOG
WASECA         CLOUDY    34  32  93 CALM      30.33S FOG
ALBERT LEA       N/A     27 N/A N/A CALM      30.31S
$$
MNZ078>079-086>088-094>096-181100-
   Southeast Minnesota

CITY           SKY/WX    TMP DP  RH WIND       PRES   REMARKS
ROCHESTER      CLEAR     30  25  81 CALM      30.32S HAZE
RED WING       FOG       25  23  93 CALM      30.34R VSB 1
STANTON        PTCLDY    27  26  93 CALM      30.32S FOG
DODGE CENTER   PTCLDY    32  30  93 CALM      30.32R FOG
WINONA         CLEAR     30  28  93 CALM      30.37R
AUSTIN         PTCLDY    25  25 100 CALM      30.32S FOG
PRESTON        CLEAR     29  27  92 CALM      30.33R FOG
$$
ABBREVIATIONS USED IN REMARKS
   TC - TEMPERATURES IN CELSIUS
  WCI - WIND CHILL INDEX
   HX - HEAT INDEX
  VSB - VISIBILITY
$$



USA.gov is the U.S. government's official web portal to all federal, state and local government web resources and services.